Location: Dennis Manor
(64.8292°N, 147.5397°W)
Time: 08:45:22
(UTC+00:00)

Envisat - Pass Details

Date: 31 October 2020
Orbit: 764 x 766 km, 98.1° (Epoch: 05 December)

Event Time Altitude Azimuth Distance (km) Brightness Sun altitude
Rises 04:10:56 0° 210° (SSW) 3,232 6.6 -16.8°
Reaches altitude 10° 04:13:45 10° 225° (SW) 2,310 6.1 -17.1°
Maximum altitude 04:17:39 22° 276° (W) 1,645 5.7 -17.5°
Drops below altitude 10° 04:21:35 10° 326° (NW) 2,320 6.0 -17.9°
Sets 04:24:25 0° 342° (NNW) 3,251 6.6 -18.2°
